Tracking 19484 objects as of 20-Jan-2019
HD Live streaming from Space Station
objects crossing your sky now

AYAME 1 (ECS 1)

Track AYAME 1 (ECS 1) now!
AYAME 1 (ECS 1) is classified as:


NORAD ID: 11261
Int'l Code: 1979-009A
Perigee: 12,495.7 km
Apogee: 34,405.7 km
Inclination: 9.0 °
Period: 854.2 minutes
Semi major axis: 29821 km
RCS: 0.2528 m2 (medium)
Launch date: February 6, 1979
Source: Japan (JPN)
Launch site: TANEGASHIMA SPACE CENTER (TNSTA)
aabbcc
Your satellite tracking list
Your tracking list is empty




NASA's NSSDC Master Catalog

Two Line Element Set (TLE):
1 11261U 79009A   19020.12178525 -.00000101  00000-0  00000+0 0  9991
2 11261   8.9878  89.4315 3673505 194.6225 147.6473  1.68579513130541
Source of the keplerian elements: AFSPC